sat.trackr.live / text

‹ back to catalog

STARLINK-3761

NORAD 52262 · 2022-041B

PAYLOAD ACTIVE UNKNOWN

§ Identity

Operator
Country
US
Launch date
2022-04-21
Launch site
AFETR
Launch vehicle
Mass (kg)
RCS (m²)

Purposes: comms

External: N2YO · Heavens-Above · Gunter

§ Orbital elements

Epoch: 2026-05-25T05:15:39.389760Z

Period
95.44 min
Inclination
53.2141°
Eccentricity
0.0001696
Mean motion
15.08853843 rev/d
Perigee alt
538.5 km
Apogee alt
540.9 km
Semi-major
6,917.8 km
B*
1.0085e-4
RAAN
125.5196°
Arg perigee
58.0534°
Mean anomaly
302.0623°
Rev number
22,591

§ Raw data

STARLINK-37611 52262U 22041B   26145.21920590  .00001318  00000+0  10085-3 0  99912 52262  53.2141 125.5196 0001696  58.0534 302.0623 15.08853843225911

JSON: /api/v1/satellites/52262 · /tle

For live sub-satellite position, see the globe view (requires WebGL).

§ Visibility from observer

Set your observer location to see the next 7 days of passes ≥ 10°. The values pass through the URL so the page stays shareable.

No JS? Fill the form by hand. The geolocation button needs JavaScript.